This demonstration page uses our WeatherBlox Daily Observations layout. Learn more.

Left ArrowRight Arrow

39.29038, -76.61219

Hourly Observations for February 25, 2017

Temp ( °F °C ) Dew Point ( °F °C ) Humidity (%) Winds ( mph kmh ) Pressure ( in mb ) Visibility ( mi km ) Precip ( " mm )
12:54 am 00:54 undefined 59 15 54 12.2 83 83 undefined N/A 29.79 1009 N/A N/A
1:54 am 01:54 undefined 58 14.4 53 11.7 84 84 undefined N/A 29.79 1009 N/A N/A
2:54 am 02:54 undefined 57 13.9 53 11.7 87 87 undefined N/A 29.76 1008 N/A N/A
3:54 am 03:54 undefined 57 13.9 53 11.7 87 87 undefined N/A 29.75 1007 N/A N/A
4:54 am 04:54 undefined 56 13.3 52 11.1 87 87 undefined N/A 29.74 1007 N/A N/A
5:54 am 05:54 undefined 56 13.3 52 11.1 87 87 undefined N/A 29.72 1007 N/A N/A
6:54 am 06:54 undefined 56 13.3 52 11.1 87 87 undefined N/A 29.70 1006 N/A N/A
7:54 am 07:54 undefined 58 14.4 54 12.2 87 87 undefined N/A 29.69 1005 N/A N/A
8:54 am 08:54 undefined 63 17.2 55 12.8 76 76 undefined N/A 29.67 1005 N/A N/A
9:54 am 09:54 undefined 67 19.4 57 13.9 71 71 undefined N/A 29.64 1004 N/A N/A
10:54 am 10:54 undefined 69 20.6 56 13.3 63 63 undefined N/A 29.61 1003 N/A N/A
11:54 am 11:54 undefined 69 20.6 55 12.8 61 61 undefined N/A 29.57 1002 N/A N/A
12:54 pm 12:54 undefined 70 21.1 56 13.3 61 61 undefined N/A 29.52 1000 N/A N/A
1:54 pm 13:54 undefined 71 21.7 55 12.8 57 57 undefined N/A 29.46 998 N/A N/A
2:54 pm 14:54 undefined 68 20 58 14.4 70 70 undefined N/A 29.43 997 N/A N/A
3:54 pm 15:54 undefined 56 13.3 50 10 81 81 undefined N/A 29.49 999 N/A 0.52 13.21
4:54 pm 16:54 undefined 57 13.9 43 6.1 60 60 undefined N/A 29.54 1000 N/A 0.08 2.03
5:54 pm 17:54 undefined 57 13.9 38 3.3 49 49 undefined N/A 29.59 1002 N/A N/A
6:54 pm 18:54 undefined 56 13.3 35 1.7 46 46 undefined N/A 29.61 1003 N/A N/A
7:54 pm 19:54 undefined 54 12.2 35 1.7 49 49 undefined N/A 29.64 1004 N/A N/A
8:54 pm 20:54 undefined 53 11.7 27 -2.8 37 37 undefined N/A 29.69 1005 N/A N/A
9:54 pm 21:54 undefined 50 10 25 -3.9 38 38 undefined N/A 29.74 1007 N/A N/A
10:54 pm 22:54 undefined 47 8.3 21 -6.1 36 36 undefined N/A 29.78 1009 N/A N/A
11:54 pm 23:54 undefined 45 7.2 21 -6.1 39 39 undefined N/A 29.83 1010 N/A N/A

Powered by AerisWeather